This is the latest recevied weather packets stored in our database for station/object K7LER. If no packets are shown the sender has not sent any weather packets the latest 10 day(s).
| Time | Temp. | Humidity | Pressure | Rain* | Wind** | Luminosity | Snow |
|---|---|---|---|---|---|---|---|
| 1778035543 | 17.22° C | 72% | 1014.7 hPa | 0 mm | - | 21 W/m² | - |
| 1778035235 | 17.22° C | 72% | 1014.7 hPa | 0 mm | - | 23 W/m² | - |
| 1778034935 | 17.22° C | 71% | 1014.7 hPa | 0 mm | - | 26 W/m² | - |
| 1778034646 | 17.22° C | 71% | 1014.8 hPa | 0 mm | - | 28 W/m² | - |
| 1778034336 | 17.78° C | 70% | 1014.8 hPa | 0 mm | - | 32 W/m² | - |
| 1778034035 | 17.78° C | 70% | 1014.8 hPa | 0 mm | - | 35 W/m² | - |
| 1778033750 | 17.78° C | 69% | 1014.9 hPa | 0 mm | - | 63 W/m² | - |
| 1778033435 | 17.78° C | 68% | 1014.9 hPa | 0 mm | - | 100 W/m² | - |
| 1778033136 | 18.33° C | 67% | 1014.9 hPa | 0 mm | - | 114 W/m² | - |
| 1778032842 | 18.33° C | 68% | 1014.9 hPa | 0 mm | - | 107 W/m² | - |
| 1778032535 | 18.33° C | 68% | 1014.9 hPa | 0 mm | - | 121 W/m² | - |
| 1778032236 | 18.33° C | 67% | 1014.9 hPa | 0 mm | - | 148 W/m² | - |
| 1778031941 | 18.33° C | 67% | 1014.9 hPa | 0 mm | - | 167 W/m² | - |
| 1778031635 | 18.33° C | 68% | 1014.9 hPa | 0 mm | - | 181 W/m² | - |
| 1778031335 | 17.78° C | 68% | 1014.9 hPa | 0 mm | - | 193 W/m² | - |
| 1778031048 | 17.78° C | 67% | 1014.9 hPa | 0 mm | - | 134 W/m² | - |
| 1778030734 | 18.33° C | 66% | 1014.8 hPa | 0 mm | - | 193 W/m² | - |
| 1778030435 | 18.89° C | 65% | 1014.7 hPa | 0 mm | - | 237 W/m² | - |
| 1778030146 | 18.89° C | 66% | 1014.8 hPa | 0 mm | - | 251 W/m² | - |
| 1778029836 | 18.33° C | 69% | 1014.8 hPa | 0 mm | - | 246 W/m² | - |
| 1778029535 | 17.78° C | 70% | 1015 hPa | 0 mm | - | 239 W/m² | - |
| 1778029246 | 17.78° C | 69% | 1015 hPa | 0 mm | - | 255 W/m² | - |
| 1778028936 | 17.78° C | 69% | 1014.9 hPa | 0 mm | - | 297 W/m² | - |
| 1778028634 | 17.78° C | 68% | 1014.9 hPa | 0 mm | - | 345 W/m² | - |
| 1778028351 | 17.78° C | 68% | 1015 hPa | 0 mm | - | 373 W/m² | - |
* Rain latest hour (hover to see other rain measurements)
** Current wind speed in m/s (hover to see current wind gust speed)